This is the latest recevied weather packets stored in our database for station/object KJ5FA-10. If no packets are shown the sender has not sent any weather packets the latest 10 day(s).
| Time | Temp. | Humidity | Pressure | Rain* | Wind** | Luminosity | Snow |
|---|---|---|---|---|---|---|---|
| 1788539971 | 33.89° C | 50% | 1016.6 hPa | 0 mm | - | - | - |
| 1788539071 | 33.33° C | 53% | 1016.5 hPa | 0 mm | - | - | - |
| 1788538171 | 33.33° C | 53% | 1016.5 hPa | 0 mm | - | - | - |
| 1788537271 | 33.33° C | 55% | 1016.6 hPa | 0 mm | - | - | - |
| 1788536371 | 32.22° C | 59% | 1016.7 hPa | 0 mm | - | - | - |
| 1788535471 | 31.11° C | 62% | 1016.9 hPa | 0 mm | - | - | - |
| 1788534571 | 30° C | 64% | 1016.8 hPa | 0 mm | - | - | - |
| 1788533671 | 29.44° C | 67% | 1016.8 hPa | 0 mm | - | - | - |
| 1788532771 | 29.44° C | 68% | 1016.9 hPa | 0 mm | - | - | - |
| 1788531871 | 28.33° C | 74% | 1016.6 hPa | 0 mm | - | - | - |
| 1788530971 | 27.78° C | 76% | 1016.7 hPa | 0 mm | - | - | - |
| 1788529170 | 26.11° C | 82% | 1016.9 hPa | 0 mm | - | - | - |
| 1788528271 | 25.56° C | 86% | 1016.8 hPa | 0 mm | - | - | - |
| 1788527371 | 24.44° C | 90% | 1016.7 hPa | 0 mm | - | - | - |
| 1788523771 | 23.33° C | 93% | 1016.2 hPa | 0 mm | - | - | - |
| 1788522871 | 23.33° C | 93% | 1015.9 hPa | 0 mm | - | - | - |
| 1788521070 | 23.89° C | 93% | 1015.9 hPa | 0 mm | - | - | - |
| 1788520172 | 23.89° C | 91% | 1015.9 hPa | 0 mm | - | - | - |
| 1788519271 | 23.89° C | 91% | 1015.7 hPa | 0 mm | - | - | - |
| 1788518370 | 23.89° C | 90% | 1016 hPa | 0 mm | - | - | - |
| 1788517471 | 23.89° C | 90% | 1015.6 hPa | 0 mm | - | - | - |
| 1788514771 | 24.44° C | 88% | 1015.6 hPa | 0 mm | - | - | - |
| 1788513871 | 24.44° C | 88% | 1015.3 hPa | 0 mm | - | - | - |
| 1788511171 | 25° C | 85% | 1015.1 hPa | 0 mm | - | - | - |
| 1788510270 | 25° C | 85% | 1015 hPa | 0 mm | - | - | - |
* Rain latest hour (hover to see other rain measurements)
** Current wind speed in m/s (hover to see current wind gust speed)